Location: Nebula Knoll Observatory
(43.6666°N, 71.0000°W)
Time: 14:23:57
(UTC-05:00)

Daily predictions for brighter satellites

Satellite Brightness Start Highest point End
(mag) Time Altitude Azimuth Time Altitude Azimuth Time Altitude Azimuth
Cosmos 2322 4.2 17:47:23 10° NNW 17:52:44 39° ENE 17:58:02 10° SE
Cosmos 1386 Rocket 4.4 17:46:50 10° S 17:52:51 68° E 17:58:51 10° NNE
Cosmos 1238 Rocket 3.4 17:55:13 10° NNE 17:57:35 21° ENE 17:59:55 10° SE
deb Kosmos-1763 4.2 17:54:29 10° SSW 17:58:17 85° WNW 18:02:06 10° NNE
NOAA 12 4.2 17:53:54 10° SSE 17:59:07 59° ENE 18:04:23 10° N
Cosmos 1975 Rocket 4.4 17:58:46 10° NNW 18:02:53 44° W 18:06:59 10° SSW
SKYMED 2 3.8 18:02:13 10° N 18:06:34 76° WNW 18:10:54 10° SSW
COSMOS 2428 3.6 18:02:56 10° N 18:07:51 29° NE 18:12:43 10° ESE
METEOR-M 4.1 18:04:28 10° SSE 18:09:47 72° ENE 18:15:07 10° N
Meteor 2-4 Rocket 4.3 18:06:11 10° N 18:11:10 32° ENE 18:16:00 10° SE
Cosmos 2237 Rocket 4.0 18:08:49 10° NNE 18:11:26 13° NE 18:14:01 10° ENE
Cosmos 1536 3.9 18:12:41 10° SE 18:15:53 24° E 18:19:06 10° NE
H-2A R/B 3.8 18:13:27 10° ESE 18:16:27 24° ENE 18:19:30 10° NNE
Okean 1 3.5 18:15:06 10° N 18:19:11 78° W 18:23:14 10° S
Cosmos 1812 4.0 18:16:13 10° NNW 18:19:56 45° W 18:23:37 10° SSW
Cosmos 1633 2.7 18:18:03 10° S 18:21:38 52° E 18:25:14 10° NNE
Cosmos 1536 Rocket 3.6 18:17:24 10° N 18:21:54 89° E 18:26:22 10° S
Cosmos 1818 3.7 18:20:52 10° SW 18:26:19 80° NW 18:31:49 10° NNE
Cosmos 2360 Rocket 2.1 18:21:54 10° NNW 18:27:36 78° ENE 18:33:16 10° SSE
Cosmos 407 Rocket 4.0 18:22:25 10° SSW 18:27:37 64° WNW 18:32:55 10° NNE
Cosmos 2219 Rocket 3.3 18:24:33 10° N 18:29:05 24° NE 18:31:49 17° E
Cosmos 2219 3.9 18:25:16 10° SSE 18:30:17 32° ESE 18:35:17 10° NE
Cosmos 676 Rocket 4.1 18:26:56 10° SSW 18:32:08 82° WNW 18:37:23 10° NNE
Cosmos 1570 Rocket 4.1 18:32:33 10° NNW 18:37:40 52° ENE 18:42:45 10° SE
Meteor 1-11 Rocket 3.8 18:33:48 10° S 18:39:32 68° E 18:45:26 10° NNE
SL-16 R/B 4.2 18:43:09 10° NNE 18:44:41 11° NE 18:45:26 11° NE
Cosmos 1140 Rocket 3.4 18:42:04 10° SSW 18:47:12 84° ESE 18:52:23 10° NNE
Resurs 01 Rocket 1.5 18:45:22 10° SSE 18:49:45 71° ENE 18:54:09 10° N
Cosmos 1602 3.9 18:46:11 10° SSW 18:50:03 73° W 18:53:59 10° N
Cosmos 1300 Rocket 3.7 18:47:10 10° S 18:51:34 80° W 18:56:03 10° N
Cosmos 614 Rocket 3.8 18:50:01 10° SSW 18:55:03 75° ESE 19:00:08 10° NNE
Spot 1 4.2 18:53:23 27° SE 18:55:10 44° ENE 18:59:08 10° N
Cosmos 1833 4.5 18:51:36 10° SSW 18:57:18 71° WNW 19:02:56 10° NNE
Abrixas rocket 3.7 18:54:35 10° SSW 18:56:51 24° SSE 18:56:51 24° SSE
ALOS 2.4 18:53:06 10° S 18:57:46 75° WSW 19:02:28 10° NNW
Cosmos 2181 Rocket 4.3 18:51:37 10° NNW 18:57:50 72° W 19:04:08 10° S
Spot 2 Rocket 3.4 18:57:03 10° SSE 19:02:07 88° ENE 19:07:13 10° NNW
USA 229 DEB 3.8 18:55:41 10° NNW 19:02:45 61° NE 19:07:02 26° ESE
Cosmos 2333 Rocket 2.9 18:57:35 10° N 19:02:50 35° NE 19:04:11 31° E
USA 229 3.9 18:55:48 10° NNW 19:02:51 61° NE 19:07:05 26° ESE
Cosmos 2208 Rocket 4.0 18:59:10 10° NNW 19:04:39 81° ENE 19:09:51 11° SSE
Helios 1A 3.0 19:04:16 34° SE 19:05:48 55° ENE 19:09:53 10° N
Resurs 1-3 3.5 19:03:15 10° SSE 19:07:38 89° W 19:12:03 10° NNW
Cosmos 1980 4.4 19:05:41 10° N 19:10:44 32° NE 19:11:16 32° ENE
Cosmos 2074 Rocket 3.9 19:07:49 10° S 19:14:04 77° E 19:20:22 10° N
Cosmos 1850 Rocket 4.0 19:09:02 10° SSW 19:14:20 89° WNW 19:19:43 10° NNE
Cosmos 2184 Rocket 3.9 19:10:43 10° S 19:17:01 78° E 19:23:17 10° N
Helios 1B rocket 2.7 19:13:18 10° NNE 19:18:13 48° SSE 19:21:30 10° S
Envisat 3.3 19:18:30 42° ENE 19:18:30 42° ENE 19:23:16 10° N
Intercosmos 24 4.4 19:17:26 10° S 19:21:40 88° ESE 19:27:53 10° N
NOSS 8 (H) 4.5 19:18:20 10° SW 19:21:41 76° NW 19:21:51 74° NNW
Okean 2 3.2 19:17:42 10° N 19:21:52 70° E 19:22:00 69° E
USA 186 4.1 19:24:36 15° N 19:24:36 15° N 19:25:09 10° N
ERS-1 Rocket 4.3 19:25:25 25° NE 19:25:25 25° NE 19:28:11 10° N
SAR-Lupe-1 4.1 19:26:19 78° W 19:26:19 78° W 19:29:53 10° NNW
Okean 1 Rocket 4.2 19:22:10 10° SSW 19:26:28 45° WNW 19:30:47 10° N
Genesis I 3.9 19:23:11 10° NW 19:27:01 50° WSW 19:28:05 38° SSW
Meteor 1-5 Rocket 4.2 19:21:16 10° S 19:27:15 87° E 19:33:12 10° N
Cosmos 1892 Rocket 3.8 19:25:43 10° N 19:29:15 53° NNE 19:29:15 53° NNE
SAR-Lupe-4 4.1 19:30:26 46° SSW 19:31:09 56° WSW 19:34:41 10° NNW
NOSS 3-1 (C) 4.3 19:27:48 10° NNW 19:34:59 50° NE 19:36:56 42° E
Nadezhda 3 Rocket 3.9 19:29:22 10° N 19:35:28 60° E 19:36:37 51° ESE
Gbstr 26 Del rocket 3.1 19:33:35 10° WSW 19:36:53 58° WNW 19:36:53 58° WNW
GEOS 3 Rocket 4.1 19:39:42 20° NNE 19:43:19 59° NW 19:48:30 10° SW
Cosmos 2285 Rocket 4.1 19:37:55 10° NNW 19:44:22 78° WSW 19:47:50 29° S
Cosmos 1025 Rocket 4.1 19:40:50 10° NNW 19:45:00 44° W 19:48:41 13° SSW
Cosmos 2154 Rocket 3.9 19:39:41 10° S 19:45:59 70° E 19:52:18 10° NNE
Cosmos 405 Rocket 3.8 19:42:17 10° NNW 19:45:01 40° NNW 19:45:01 40° NNW
Meteor 2-13 Rocket 4.4 19:45:52 10° S 19:51:56 84° W 19:58:04 10° N
COSMOS 2428 3.5 19:46:53 10° NW 19:52:21 48° WSW 19:55:38 23° S
Cosmos 2237 Rocket 2.4 19:51:00 10° NNW 19:55:53 58° NNE 19:55:53 58° NNE
NOSS 0 Rocket 3.8 20:02:01 10° NNW 20:08:11 79° WSW 20:08:24 78° SW
Cosmos 2219 Rocket 2.6 20:07:55 10° NNW 20:13:26 58° WSW 20:13:35 57° WSW
Cosmos 2219 4.4 20:08:52 10° SW 20:14:17 41° WNW 20:19:43 10° NNE
SL-16 R/B 3.7 20:24:37 10° NNW 20:27:20 28° N 20:27:20 28° N
Cosmos 2333 Rocket 3.5 20:41:50 10° NW 20:46:14 36° W 20:46:14 36° W
NOSS 3-1 (A) 4.4 20:59:03 10° NW 21:04:58 58° WNW 21:04:58 58° WNW
ATLAS 2AS CENTAUR R/B 4.0 21:04:58 10° NNW 21:10:18 37° N 21:10:18 37° N
